"Pseudo-MPEC" for 2008-001B = NORAD 32405

Created 2017 May 27 1:51:44 UT using Find_Orb

Astrometry:
2008-001B    tC2016 05 03.13572 16 12 58.75 -00 24 32.6          12.9 R D0544Y00
2008-001B    tC2016 05 03.13717 16 13 57.84 -00 23 10.1          12.8 R D0544Y00
2008-001B    tC2016 05 03.13832 16 14 44.69 -00 22 04.2          12.7 R D0544Y00
2008-001B    tC2016 06 16.06157 16 42 57.85 +02 32 21.8          12.6 R      Y00
2008-001B    tC2016 06 16.06256 16 43 43.45 +02 33 20.0          12.3 R      Y00
2008-001B    tC2016 06 16.06385 16 44 42.50 +02 34 36.8          12.7 R      Y00
2008-001B    tC2016 06 16.12614 17 27 48.83 +03 45 33.9          13.3 R      Y00
2008-001B    tC2016 06 16.12737 17 28 37.41 +03 47 10.7          13.5 R      Y00
2008-001B    tC2016 06 16.12894 17 29 39.52 +03 49 14.8          13.3 R      Y00

Station data:
(Y00) SONEAR Observatory, Oliveira  (S20.715080 W44.784960)  Brazil.
   Observers C. Jacques, E. Pimentel, J. Barros. Measurer C. Jacques. 0.28-m
   f/2.2 astrograph + CCD.

Orbital elements:  2008-001B = NORAD 32405
   Perigee 2016 May 25.149446 +/- 0.0002 TT =  3:35:12 (JD 2457533.649446)
Epoch 2016 May 25.0 TT = JDT 2457533.5                        Gray
M 238.84375 +/- 0.16                (J2000 equator)
n 810.70054053 +/- 0.00176          Peri.  166.06937 +/- 0.043
a 24586.4899 +/- 0.0356             Node   268.80153 +/- 0.020
e   0.7140398 +/- 0.000161          Incl.    5.77691 +/- 0.0055
P 639.43m/0.444d           H 30.3   G  0.15   U  8.5
q 7030.75616 +/- 3.96    Q 42142.2236 +/- 4.03
From 9 observations 2016 May 3-June 16; mean residual 8".268
Residuals in arcseconds: 
160503 Y00 3.39+ 3.52-    160616 Y00 2.58- 17.6+    160616 Y00 .061- 8.98-
160503 Y00 .185- 3.95-    160616 Y00 1.41- 17.1+    160616 Y00 .522+ 9.16-
160503 Y00 1.57- 4.49-    160616 Y00 .641- 17.0+    160616 Y00 2.99+ 9.68-

Ephemerides (geocentric):
Date (UTC) HH   RA              Dec         delta   r     elong  mag " sig PA
---- -- -- --  ------------   ------------  ------ ------ -----  --- ---- ---
2016 06 16 00  15 31 31.477   -02 38 44.89   31470 1.0160 143.0 13.4 168'  85
2016 06 16 01  16 19 13.239   -01 32 46.87   37445 1.0161 150.9 13.6 7055  85
2016 06 16 02  16 56 01.732   -00 38 55.84   40889 1.0161 155.0 13.6 5882  84
2016 06 16 03  17 28 46.304   +00 09 52.42   42136 1.0161 156.4 13.7 5501  84
2016 06 16 04  18 01 12.083   +00 58 00.61   41291 1.0161 155.1 13.6 5669  84
2016 06 16 05  18 36 52.382   +01 49 33.34   38284 1.0161 151.2 13.6 6491  85
2016 06 16 06  19 21 38.614   +02 50 17.42   32832 1.0161 143.9 13.5 8610  85
2016 06 16 07  20 31 45.987   +04 11 26.26   24285 1.0160 129.8 13.2 250'  86
2016 06 16 08  23 49 57.681   +05 38 29.78   11406 1.0159  85.5 13.1 981'  91
2016 06 16 09  12 10 35.105   -05 33 12.93   13645 1.0159  99.2 12.9  17d  89
2016 06 16 10  14 46 28.246   -03 33 54.47   25828 1.0160 133.6 13.2 260'  86
2016 06 16 11  15 50 29.775   -02 12 15.01   33839 1.0161 146.0 13.5 8873  85
2016 06 16 12  16 33 15.356   -01 11 28.99   38889 1.0161 152.5 13.6 6661  84
2016 06 16 13  17 08 08.572   -00 19 56.00   41556 1.0162 155.6 13.6 5798  84
2016 06 16 14  17 40 24.247   +00 28 10.83   42083 1.0162 156.2 13.7 5608  84
2016 06 16 15  18 13 29.615   +01 16 55.70   40514 1.0162 154.1 13.6 5977  84
2016 06 16 16  18 51 23.192   +02 10 41.32   36713 1.0161 149.3 13.6 7146  85
2016 06 16 17  19 41 53.939   +03 16 28.81   30302 1.0161 140.4 13.4 169'  85
2016 06 16 18  21 11 48.187   +04 48 03.66   20420 1.0160 121.5 13.1 350'  87
2016 06 16 19  04 01 05.463   +01 57 11.01    7262 1.0159  32.5 16??  41d  95
2016 06 16 20  13 29 11.940   -04 49 04.69   18385 1.0160 116.5 13.0 557'  87
2016 06 16 21  15 13 13.075   -03 00 36.36   28967 1.0161 138.7 13.3 208'  85
2016 06 16 22  16 07 13.045   -01 47 57.60   35866 1.0161 148.4 13.5 8030  85
2016 06 16 23  16 46 25.081   -00 51 10.58   40056 1.0162 153.7 13.6 6391  84
2016 06 17 00  17 19 57.726   -00 01 18.84   41973 1.0162 156.0 13.7 5781  84
2016 06 17 01  17 52 07.893   +00 46 32.60   41785 1.0162 155.7 13.7 5778  84
2016 06 17 02  18 26 19.533   +01 36 21.91   39476 1.0162 152.9 13.6 6383  85
2016 06 17 03  19 07 16.641   +02 33 04.20   34840 1.0162 147.0 13.5 8018  85
2016 06 17 04  20 06 04.697   +03 45 24.98   27372 1.0161 135.9 13.3 208'  86
2016 06 17 05  22 12 23.786   +05 25 49.37   15964 1.0160 108.4 12.9 555'  88
2016 06 17 06  09 45 37.282   -05 12 10.02    9096 1.0159  65.5 13.7  43d  92
2016 06 17 07  14 17 01.411   -04 04 39.59   22524 1.0161 126.6 13.1 364'  86
2016 06 17 08  15 35 07.893   -02 31 11.52   31683 1.0161 142.5 13.4 176'  85
2016 06 17 09  16 22 20.010   -01 25 22.09   37579 1.0162 150.4 13.6 7439  84
2016 06 17 10  16 58 56.722   -00 31 37.98   40957 1.0162 154.6 13.6 6219  84
2016 06 17 11  17 31 37.459   +00 17 03.81   42144 1.0162 156.1 13.7 5828  84
2016 06 17 12  18 04 05.155   +01 05 05.14   41239 1.0162 155.1 13.6 6020  84
2016 06 17 13  18 39 54.514   +01 56 29.85   38167 1.0162 151.3 13.6 6913  85
2016 06 17 14  19 25 04.565   +02 57 03.17   32640 1.0162 144.1 13.4 9212  85
2016 06 17 15  20 36 27.805   +04 17 46.72   23988 1.0161 129.9 13.2 270'  86